owner,sensor,date,latitude,longitude,vertical_datum,wind_speed,wind_to_direction,wind_speed_of_gust,qcFlag 
WAVCIS,ioos:station:WAVCIS:CSI09:1,2010-12-01T00:00:00Z,29.1015,-89.9782,0.0,10.24,309.0,,'11111222,11111222,99999999' 
WAVCIS,ioos:station:WAVCIS:CSI09:1,2010-12-01T01:00:00Z,29.1015,-89.9782,0.0,12.42,312.0,,'11111222,11111222,99999999' 
WAVCIS,ioos:station:WAVCIS:CSI09:1,2010-12-01T02:00:00Z,29.1015,-89.9782,0.0,13.95,314.0,,'11111222,11111222,99999999' 
WAVCIS,ioos:station:WAVCIS:CSI09:1,2010-12-01T03:00:00Z,29.1015,-89.9782,0.0,14.22,324.0,,'11111222,11111222,99999999' 
WAVCIS,ioos:station:WAVCIS:CSI09:1,2010-12-01T04:00:00Z,29.1015,-89.9782,0.0,15.07,324.0,,'11111222,11111222,99999999' 
WAVCIS,ioos:station:WAVCIS:CSI09:1,2010-12-01T05:00:00Z,29.1015,-89.9782,0.0,13.28,337.0,,'11111222,11111222,99999999' 
WAVCIS,ioos:station:WAVCIS:CSI09:1,2010-12-01T06:00:00Z,29.1015,-89.9782,0.0,13.62,338.0,,'11111222,11111222,99999999' 
WAVCIS,ioos:station:WAVCIS:CSI09:1,2010-12-01T07:00:00Z,29.1015,-89.9782,0.0,12.53,340.0,,'11111222,11111222,99999999' 
WAVCIS,ioos:station:WAVCIS:CSI09:1,2010-12-01T08:00:00Z,29.1015,-89.9782,0.0,11.44,327.0,,'11111222,11111222,99999999' 
WAVCIS,ioos:station:WAVCIS:CSI09:1,2010-12-01T09:00:00Z,29.1015,-89.9782,0.0,12.32,338.0,,'11111222,11111222,99999999' 
WAVCIS,ioos:station:WAVCIS:CSI09:1,2010-12-01T10:00:00Z,29.1015,-89.9782,0.0,11.59,334.0,,'11111222,11111222,99999999' 
WAVCIS,ioos:station:WAVCIS:CSI09:1,2010-12-01T11:00:00Z,29.1015,-89.9782,0.0,11.66,343.0,,'11111222,11111222,99999999' 
WAVCIS,ioos:station:WAVCIS:CSI09:1,2010-12-01T12:00:00Z,29.1015,-89.9782,0.0,10.3,346.0,,'11111222,11111222,99999999' 
WAVCIS,ioos:station:WAVCIS:CSI09:1,2010-12-01T13:00:00Z,29.1015,-89.9782,0.0,13.47,357.0,,'11111222,11111222,99999999' 
WAVCIS,ioos:station:WAVCIS:CSI09:1,2010-12-01T14:00:00Z,29.1015,-89.9782,0.0,10.68,5.0,,'11111222,11111222,99999999' 
WAVCIS,ioos:station:WAVCIS:CSI09:1,2010-12-01T15:00:00Z,29.1015,-89.9782,0.0,8.74,6.0,,'11111222,11111222,99999999' 
WAVCIS,ioos:station:WAVCIS:CSI09:1,2010-12-01T16:00:00Z,29.1015,-89.9782,0.0,7.96,11.0,,'11111222,11111222,99999999' 
WAVCIS,ioos:station:WAVCIS:CSI09:1,2010-12-01T17:00:00Z,29.1015,-89.9782,0.0,7.39,10.0,,'11111222,11111222,99999999' 
WAVCIS,ioos:station:WAVCIS:CSI09:1,2010-12-01T18:00:00Z,29.1015,-89.9782,0.0,5.8,23.0,,'11111222,11111222,99999999' 
WAVCIS,ioos:station:WAVCIS:CSI09:1,2010-12-01T19:00:00Z,29.1015,-89.9782,0.0,5.198,16.0,,'11111222,11111222,99999999' 
WAVCIS,ioos:station:WAVCIS:CSI09:1,2010-12-01T20:00:00Z,29.1015,-89.9782,0.0,2.672,18.0,,'11111222,11111222,99999999' 
WAVCIS,ioos:station:WAVCIS:CSI09:1,2010-12-01T21:00:00Z,29.1015,-89.9782,0.0,2.891,11.0,,'11111222,11111222,99999999' 
WAVCIS,ioos:station:WAVCIS:CSI09:1,2010-12-01T22:00:00Z,29.1015,-89.9782,0.0,3.072,358.0,,'11111222,11111222,99999999' 
WAVCIS,ioos:station:WAVCIS:CSI09:1,2010-12-01T23:00:00Z,29.1015,-89.9782,0.0,4.454,358.0,,'11111222,11111222,99999999' 
WAVCIS,ioos:station:WAVCIS:CSI09:1,2010-12-02T00:00:00Z,29.1015,-89.9782,0.0,4.818,349.0,,'11111222,11111222,99999999' 
WAVCIS,ioos:station:WAVCIS:CSI09:1,2010-12-02T01:00:00Z,29.1015,-89.9782,0.0,3.472,308.0,,'11111222,11111222,99999999' 
WAVCIS,ioos:station:WAVCIS:CSI09:1,2010-12-02T02:00:00Z,29.1015,-89.9782,0.0,2.737,4.0,,'11111222,11111222,99999999' 
WAVCIS,ioos:station:WAVCIS:CSI09:1,2010-12-02T03:00:00Z,29.1015,-89.9782,0.0,3.192,338.0,,'11111222,11111222,99999999' 
WAVCIS,ioos:station:WAVCIS:CSI09:1,2010-12-02T04:00:00Z,29.1015,-89.9782,0.0,3.718,301.0,,'11111222,11111222,99999999' 
WAVCIS,ioos:station:WAVCIS:CSI09:1,2010-12-02T05:00:00Z,29.1015,-89.9782,0.0,3.35,289.0,,'11111222,11111222,99999999' 
WAVCIS,ioos:station:WAVCIS:CSI09:1,2010-12-02T06:00:00Z,29.1015,-89.9782,0.0,4.19,300.0,,'11111222,11111222,99999999' 
WAVCIS,ioos:station:WAVCIS:CSI09:1,2010-12-02T07:00:00Z,29.1015,-89.9782,0.0,4.404,305.0,,'11111222,11111222,99999999' 
WAVCIS,ioos:station:WAVCIS:CSI09:1,2010-12-02T08:00:00Z,29.1015,-89.9782,0.0,4.206,328.0,,'11111222,11111222,99999999' 
WAVCIS,ioos:station:WAVCIS:CSI09:1,2010-12-02T09:00:00Z,29.1015,-89.9782,0.0,3.463,326.0,,'11111222,11111222,99999999' 
WAVCIS,ioos:station:WAVCIS:CSI09:1,2010-12-02T10:00:00Z,29.1015,-89.9782,0.0,5.126,327.0,,'11111222,11111222,99999999' 
WAVCIS,ioos:station:WAVCIS:CSI09:1,2010-12-02T11:00:00Z,29.1015,-89.9782,0.0,5.121,331.0,,'11111222,11111222,99999999' 
WAVCIS,ioos:station:WAVCIS:CSI09:1,2010-12-02T12:00:00Z,29.1015,-89.9782,0.0,5.075,332.0,,'11111222,11111222,99999999' 
WAVCIS,ioos:station:WAVCIS:CSI09:1,2010-12-02T13:00:00Z,29.1015,-89.9782,0.0,5.145,336.0,,'11111222,11111222,99999999' 
WAVCIS,ioos:station:WAVCIS:CSI09:1,2010-12-02T14:00:00Z,29.1015,-89.9782,0.0,5.239,346.0,,'11111222,11111222,99999999' 
WAVCIS,ioos:station:WAVCIS:CSI09:1,2010-12-02T15:00:00Z,29.1015,-89.9782,0.0,4.669,0.0,,'11111222,11111222,99999999' 
WAVCIS,ioos:station:WAVCIS:CSI09:1,2010-12-02T16:00:00Z,29.1015,-89.9782,0.0,4.403,9.0,,'11111222,11111222,99999999' 
WAVCIS,ioos:station:WAVCIS:CSI09:1,2010-12-02T17:00:00Z,29.1015,-89.9782,0.0,4.566,14.0,,'11111222,11111222,99999999' 
WAVCIS,ioos:station:WAVCIS:CSI09:1,2010-12-02T18:00:00Z,29.1015,-89.9782,0.0,4.071,24.0,,'11111222,11111222,99999999' 
WAVCIS,ioos:station:WAVCIS:CSI09:1,2010-12-02T19:00:00Z,29.1015,-89.9782,0.0,3.824,25.0,,'11111222,11111222,99999999' 
WAVCIS,ioos:station:WAVCIS:CSI09:1,2010-12-02T20:00:00Z,29.1015,-89.9782,0.0,3.272,21.0,,'11111222,11111222,99999999' 
WAVCIS,ioos:station:WAVCIS:CSI09:1,2010-12-02T21:00:00Z,29.1015,-89.9782,0.0,2.412,31.0,,'11111222,11111222,99999999' 
WAVCIS,ioos:station:WAVCIS:CSI09:1,2010-12-02T22:00:00Z,29.1015,-89.9782,0.0,1.726,22.0,,'11111222,11111222,99999999' 
WAVCIS,ioos:station:WAVCIS:CSI09:1,2010-12-02T23:00:00Z,29.1015,-89.9782,0.0,0.744,321.0,,'11111222,11111222,99999999' 
WAVCIS,ioos:station:WAVCIS:CSI09:1,2010-12-03T00:00:00Z,29.1015,-89.9782,0.0,1.021,292.0,,'11111222,11111222,99999999' 
WAVCIS,ioos:station:WAVCIS:CSI09:1,2010-12-03T01:00:00Z,29.1015,-89.9782,0.0,0.936,227.0,,'11111222,11111222,99999999' 
WAVCIS,ioos:station:WAVCIS:CSI09:1,2010-12-03T02:00:00Z,29.1015,-89.9782,0.0,2.568,173.0,,'11111222,11111222,99999999' 
WAVCIS,ioos:station:WAVCIS:CSI09:1,2010-12-03T03:00:00Z,29.1015,-89.9782,0.0,3.448,152.0,,'11111222,11111222,99999999' 
WAVCIS,ioos:station:WAVCIS:CSI09:1,2010-12-03T04:00:00Z,29.1015,-89.9782,0.0,4.551,170.0,,'11111222,11111222,99999999' 
WAVCIS,ioos:station:WAVCIS:CSI09:1,2010-12-03T05:00:00Z,29.1015,-89.9782,0.0,2.901,176.0,,'11111222,11111222,99999999' 
WAVCIS,ioos:station:WAVCIS:CSI09:1,2010-12-03T06:00:00Z,29.1015,-89.9782,0.0,3.343,177.0,,'11111222,11111222,99999999' 
WAVCIS,ioos:station:WAVCIS:CSI09:1,2010-12-03T07:00:00Z,29.1015,-89.9782,0.0,2.076,203.0,,'11111222,11111222,99999999' 
WAVCIS,ioos:station:WAVCIS:CSI09:1,2010-12-03T08:00:00Z,29.1015,-89.9782,0.0,2.691,284.0,,'11111222,11111222,99999999' 
WAVCIS,ioos:station:WAVCIS:CSI09:1,2010-12-03T09:00:00Z,29.1015,-89.9782,0.0,3.274,278.0,,'11111222,11111222,99999999' 
WAVCIS,ioos:station:WAVCIS:CSI09:1,2010-12-03T10:00:00Z,29.1015,-89.9782,0.0,4.208,284.0,,'11111222,11111222,99999999' 
WAVCIS,ioos:station:WAVCIS:CSI09:1,2010-12-03T11:00:00Z,29.1015,-89.9782,0.0,3.024,316.0,,'11111222,11111222,99999999' 
WAVCIS,ioos:station:WAVCIS:CSI09:1,2010-12-03T12:00:00Z,29.1015,-89.9782,0.0,2.391,340.0,,'11111222,11111222,99999999' 
WAVCIS,ioos:station:WAVCIS:CSI09:1,2010-12-03T13:00:00Z,29.1015,-89.9782,0.0,1.613,351.0,,'11111222,11111222,99999999' 
WAVCIS,ioos:station:WAVCIS:CSI09:1,2010-12-03T14:00:00Z,29.1015,-89.9782,0.0,0.826,21.0,,'11111222,11111222,99999999' 
WAVCIS,ioos:station:WAVCIS:CSI09:1,2010-12-03T15:00:00Z,29.1015,-89.9782,0.0,1.443,32.0,,'11111222,11111222,99999999' 
WAVCIS,ioos:station:WAVCIS:CSI09:1,2010-12-03T16:00:00Z,29.1015,-89.9782,0.0,1.525,38.0,,'11111222,11111222,99999999' 
WAVCIS,ioos:station:WAVCIS:CSI09:1,2010-12-03T17:00:00Z,29.1015,-89.9782,0.0,0.973,46.0,,'11111222,11111222,99999999' 
WAVCIS,ioos:station:WAVCIS:CSI09:1,2010-12-03T18:00:00Z,29.1015,-89.9782,0.0,0.943,57.0,,'11111222,11111222,99999999' 
WAVCIS,ioos:station:WAVCIS:CSI09:1,2010-12-03T19:00:00Z,29.1015,-89.9782,0.0,1.257,109.0,,'11111222,11111222,99999999' 
WAVCIS,ioos:station:WAVCIS:CSI09:1,2010-12-03T20:00:00Z,29.1015,-89.9782,0.0,1.893,152.0,,'11111222,11111222,99999999' 
WAVCIS,ioos:station:WAVCIS:CSI09:1,2010-12-03T21:00:00Z,29.1015,-89.9782,0.0,2.676,161.0,,'11111222,11111222,99999999' 
WAVCIS,ioos:station:WAVCIS:CSI09:1,2010-12-03T22:00:00Z,29.1015,-89.9782,0.0,3.068,151.0,,'11111222,11111222,99999999' 
WAVCIS,ioos:station:WAVCIS:CSI09:1,2010-12-03T23:00:00Z,29.1015,-89.9782,0.0,3.255,169.0,,'11111222,11111222,99999999' 
WAVCIS,ioos:station:WAVCIS:CSI09:1,2010-12-04T00:00:00Z,29.1015,-89.9782,0.0,3.22,178.0,,'11111222,11111222,99999999' 
WAVCIS,ioos:station:WAVCIS:CSI09:1,2010-12-04T01:00:00Z,29.1015,-89.9782,0.0,3.401,181.0,,'11111222,11111222,99999999' 
WAVCIS,ioos:station:WAVCIS:CSI09:1,2010-12-04T02:00:00Z,29.1015,-89.9782,0.0,2.747,192.0,,'11111222,11111222,99999999' 
WAVCIS,ioos:station:WAVCIS:CSI09:1,2010-12-04T03:00:00Z,29.1015,-89.9782,0.0,4.97,174.0,,'11111222,11111222,99999999' 
WAVCIS,ioos:station:WAVCIS:CSI09:1,2010-12-04T04:00:00Z,29.1015,-89.9782,0.0,5.055,174.0,,'11111222,11111222,99999999' 
WAVCIS,ioos:station:WAVCIS:CSI09:1,2010-12-04T05:00:00Z,29.1015,-89.9782,0.0,3.654,190.0,,'11111222,11111222,99999999' 
WAVCIS,ioos:station:WAVCIS:CSI09:1,2010-12-04T06:00:00Z,29.1015,-89.9782,0.0,4.122,188.0,,'11111222,11111222,99999999' 
WAVCIS,ioos:station:WAVCIS:CSI09:1,2010-12-04T07:00:00Z,29.1015,-89.9782,0.0,3.469,204.0,,'11111222,11111222,99999999' 
WAVCIS,ioos:station:WAVCIS:CSI09:1,2010-12-04T08:00:00Z,29.1015,-89.9782,0.0,4.121,209.0,,'11111222,11111222,99999999' 
WAVCIS,ioos:station:WAVCIS:CSI09:1,2010-12-04T09:00:00Z,29.1015,-89.9782,0.0,4.155,209.0,,'11111222,11111222,99999999' 
WAVCIS,ioos:station:WAVCIS:CSI09:1,2010-12-04T10:00:00Z,29.1015,-89.9782,0.0,6.557,222.0,,'11111222,11111222,99999999' 
WAVCIS,ioos:station:WAVCIS:CSI09:1,2010-12-04T11:00:00Z,29.1015,-89.9782,0.0,5.209,218.0,,'11111222,11111222,99999999' 
WAVCIS,ioos:station:WAVCIS:CSI09:1,2010-12-04T12:00:00Z,29.1015,-89.9782,0.0,3.618,201.0,,'11111222,11111222,99999999' 
WAVCIS,ioos:station:WAVCIS:CSI09:1,2010-12-04T13:00:00Z,29.1015,-89.9782,0.0,3.259,207.0,,'11111222,11111222,99999999' 
WAVCIS,ioos:station:WAVCIS:CSI09:1,2010-12-04T14:00:00Z,29.1015,-89.9782,0.0,3.013,204.0,,'11111222,11111222,99999999' 
WAVCIS,ioos:station:WAVCIS:CSI09:1,2010-12-04T15:00:00Z,29.1015,-89.9782,0.0,2.606,216.0,,'11111222,11111222,99999999' 
WAVCIS,ioos:station:WAVCIS:CSI09:1,2010-12-04T16:00:00Z,29.1015,-89.9782,0.0,4.001,222.0,,'11111222,11111222,99999999' 
WAVCIS,ioos:station:WAVCIS:CSI09:1,2010-12-04T17:00:00Z,29.1015,-89.9782,0.0,5.606,227.0,,'11111222,11111222,99999999' 
WAVCIS,ioos:station:WAVCIS:CSI09:1,2010-12-04T18:00:00Z,29.1015,-89.9782,0.0,5.7,225.0,,'11111222,11111222,99999999' 
WAVCIS,ioos:station:WAVCIS:CSI09:1,2010-12-04T19:00:00Z,29.1015,-89.9782,0.0,6.763,226.0,,'11111222,11111222,99999999' 
WAVCIS,ioos:station:WAVCIS:CSI09:1,2010-12-04T20:00:00Z,29.1015,-89.9782,0.0,6.819,224.0,,'11111222,11111222,99999999' 
WAVCIS,ioos:station:WAVCIS:CSI09:1,2010-12-04T21:00:00Z,29.1015,-89.9782,0.0,7.39,231.0,,'11111222,11111222,99999999' 
WAVCIS,ioos:station:WAVCIS:CSI09:1,2010-12-04T22:00:00Z,29.1015,-89.9782,0.0,6.469,234.0,,'11111222,11111222,99999999' 
WAVCIS,ioos:station:WAVCIS:CSI09:1,2010-12-04T23:00:00Z,29.1015,-89.9782,0.0,6.485,243.0,,'11111222,11111222,99999999' 
WAVCIS,ioos:station:WAVCIS:CSI09:1,2010-12-05T00:00:00Z,29.1015,-89.9782,0.0,6.398,244.0,,'11111222,11111222,99999999' 
WAVCIS,ioos:station:WAVCIS:CSI09:1,2010-12-05T01:00:00Z,29.1015,-89.9782,0.0,6.912,239.0,,'11111222,11111222,99999999' 
WAVCIS,ioos:station:WAVCIS:CSI09:1,2010-12-05T02:00:00Z,29.1015,-89.9782,0.0,7.39,239.0,,'11111222,11111222,99999999' 
WAVCIS,ioos:station:WAVCIS:CSI09:1,2010-12-05T03:00:00Z,29.1015,-89.9782,0.0,7.15,248.0,,'11111222,11111222,99999999' 
WAVCIS,ioos:station:WAVCIS:CSI09:1,2010-12-05T04:00:00Z,29.1015,-89.9782,0.0,6.478,255.0,,'11111222,11111222,99999999' 
WAVCIS,ioos:station:WAVCIS:CSI09:1,2010-12-05T05:00:00Z,29.1015,-89.9782,0.0,6.402,249.0,,'11111222,11111222,99999999' 
WAVCIS,ioos:station:WAVCIS:CSI09:1,2010-12-05T06:00:00Z,29.1015,-89.9782,0.0,7.12,254.0,,'11111222,11111222,99999999' 
WAVCIS,ioos:station:WAVCIS:CSI09:1,2010-12-05T07:00:00Z,29.1015,-89.9782,0.0,6.765,261.0,,'11111222,11111222,99999999' 
WAVCIS,ioos:station:WAVCIS:CSI09:1,2010-12-05T08:00:00Z,29.1015,-89.9782,0.0,8.6,298.0,,'11111222,11111222,99999999' 
WAVCIS,ioos:station:WAVCIS:CSI09:1,2010-12-05T09:00:00Z,29.1015,-89.9782,0.0,7.89,332.0,,'11111222,11111222,99999999' 
WAVCIS,ioos:station:WAVCIS:CSI09:1,2010-12-05T10:00:00Z,29.1015,-89.9782,0.0,11.46,15.0,,'11111222,11111222,99999999' 
WAVCIS,ioos:station:WAVCIS:CSI09:1,2010-12-05T11:00:00Z,29.1015,-89.9782,0.0,12.37,12.0,,'11111222,11111222,99999999' 
WAVCIS,ioos:station:WAVCIS:CSI09:1,2010-12-05T12:00:00Z,29.1015,-89.9782,0.0,13.74,11.0,,'11111222,11111222,99999999' 
WAVCIS,ioos:station:WAVCIS:CSI09:1,2010-12-05T13:00:00Z,29.1015,-89.9782,0.0,14.4,11.0,,'11111222,11111222,99999999' 
WAVCIS,ioos:station:WAVCIS:CSI09:1,2010-12-05T14:00:00Z,29.1015,-89.9782,0.0,12.85,8.0,,'11111222,11111222,99999999' 
WAVCIS,ioos:station:WAVCIS:CSI09:1,2010-12-05T15:00:00Z,29.1015,-89.9782,0.0,12.37,11.0,,'11111222,11111222,99999999' 
WAVCIS,ioos:station:WAVCIS:CSI09:1,2010-12-05T16:00:00Z,29.1015,-89.9782,0.0,10.72,12.0,,'11111222,11111222,99999999' 
WAVCIS,ioos:station:WAVCIS:CSI09:1,2010-12-05T17:00:00Z,29.1015,-89.9782,0.0,10.97,13.0,,'11111222,11111222,99999999' 
WAVCIS,ioos:station:WAVCIS:CSI09:1,2010-12-05T18:00:00Z,29.1015,-89.9782,0.0,10.66,10.0,,'11111222,11111222,99999999' 
WAVCIS,ioos:station:WAVCIS:CSI09:1,2010-12-05T19:00:00Z,29.1015,-89.9782,0.0,12.04,12.0,,'11111222,11111222,99999999' 
WAVCIS,ioos:station:WAVCIS:CSI09:1,2010-12-05T20:00:00Z,29.1015,-89.9782,0.0,9.98,10.0,,'11111222,11111222,99999999' 
WAVCIS,ioos:station:WAVCIS:CSI09:1,2010-12-05T21:00:00Z,29.1015,-89.9782,0.0,9.41,6.0,,'11111222,11111222,99999999' 
WAVCIS,ioos:station:WAVCIS:CSI09:1,2010-12-05T22:00:00Z,29.1015,-89.9782,0.0,9.68,9.0,,'11111222,11111222,99999999' 
WAVCIS,ioos:station:WAVCIS:CSI09:1,2010-12-05T23:00:00Z,29.1015,-89.9782,0.0,10.39,6.0,,'11111222,11111222,99999999' 
WAVCIS,ioos:station:WAVCIS:CSI09:1,2010-12-06T00:00:00Z,29.1015,-89.9782,0.0,10.51,2.0,,'11111222,11111222,99999999' 
WAVCIS,ioos:station:WAVCIS:CSI09:1,2010-12-06T01:00:00Z,29.1015,-89.9782,0.0,10.28,8.0,,'11111222,11111222,99999999' 
WAVCIS,ioos:station:WAVCIS:CSI09:1,2010-12-06T02:00:00Z,29.1015,-89.9782,0.0,10.87,8.0,,'11111222,11111222,99999999' 
WAVCIS,ioos:station:WAVCIS:CSI09:1,2010-12-06T03:00:00Z,29.1015,-89.9782,0.0,11.47,11.0,,'11111222,11111222,99999999' 
WAVCIS,ioos:station:WAVCIS:CSI09:1,2010-12-06T04:00:00Z,29.1015,-89.9782,0.0,12.56,8.0,,'11111222,11111222,99999999' 
WAVCIS,ioos:station:WAVCIS:CSI09:1,2010-12-06T05:00:00Z,29.1015,-89.9782,0.0,13.59,12.0,,'11111222,11111222,99999999' 
WAVCIS,ioos:station:WAVCIS:CSI09:1,2010-12-06T06:00:00Z,29.1015,-89.9782,0.0,12.38,12.0,,'11111222,11111222,99999999' 
WAVCIS,ioos:station:WAVCIS:CSI09:1,2010-12-06T07:00:00Z,29.1015,-89.9782,0.0,11.63,14.0,,'11111222,11111222,99999999' 
WAVCIS,ioos:station:WAVCIS:CSI09:1,2010-12-06T08:00:00Z,29.1015,-89.9782,0.0,11.54,13.0,,'11111222,11111222,99999999' 
WAVCIS,ioos:station:WAVCIS:CSI09:1,2010-12-06T09:00:00Z,29.1015,-89.9782,0.0,12.12,13.0,,'11111222,11111222,99999999' 
WAVCIS,ioos:station:WAVCIS:CSI09:1,2010-12-06T10:00:00Z,29.1015,-89.9782,0.0,12.23,12.0,,'11111222,11111222,99999999' 
WAVCIS,ioos:station:WAVCIS:CSI09:1,2010-12-06T11:00:00Z,29.1015,-89.9782,0.0,11.76,10.0,,'11111222,11111222,99999999' 
WAVCIS,ioos:station:WAVCIS:CSI09:1,2010-12-06T12:00:00Z,29.1015,-89.9782,0.0,11.45,11.0,,'11111222,11111222,99999999' 
WAVCIS,ioos:station:WAVCIS:CSI09:1,2010-12-06T13:00:00Z,29.1015,-89.9782,0.0,10.98,16.0,,'11111222,11111222,99999999' 
WAVCIS,ioos:station:WAVCIS:CSI09:1,2010-12-06T14:00:00Z,29.1015,-89.9782,0.0,10.3,10.0,,'11111222,11111222,99999999' 
WAVCIS,ioos:station:WAVCIS:CSI09:1,2010-12-06T15:00:00Z,29.1015,-89.9782,0.0,10.51,5.0,,'11111222,11111222,99999999' 
WAVCIS,ioos:station:WAVCIS:CSI09:1,2010-12-06T16:00:00Z,29.1015,-89.9782,0.0,10.39,10.0,,'11111222,11111222,99999999' 
WAVCIS,ioos:station:WAVCIS:CSI09:1,2010-12-06T17:00:00Z,29.1015,-89.9782,0.0,9.34,9.0,,'11111222,11111222,99999999' 
WAVCIS,ioos:station:WAVCIS:CSI09:1,2010-12-06T18:00:00Z,29.1015,-89.9782,0.0,8.74,5.0,,'11111222,11111222,99999999' 
WAVCIS,ioos:station:WAVCIS:CSI09:1,2010-12-06T19:00:00Z,29.1015,-89.9782,0.0,6.902,358.0,,'11111222,11111222,99999999' 
WAVCIS,ioos:station:WAVCIS:CSI09:1,2010-12-06T20:00:00Z,29.1015,-89.9782,0.0,6.114,352.0,,'11111222,11111222,99999999' 
WAVCIS,ioos:station:WAVCIS:CSI09:1,2010-12-06T21:00:00Z,29.1015,-89.9782,0.0,6.456,334.0,,'11111222,11111222,99999999' 
WAVCIS,ioos:station:WAVCIS:CSI09:1,2010-12-06T22:00:00Z,29.1015,-89.9782,0.0,7.54,344.0,,'11111222,11111222,99999999' 
WAVCIS,ioos:station:WAVCIS:CSI09:1,2010-12-06T23:00:00Z,29.1015,-89.9782,0.0,7.7,346.0,,'11111222,11111222,99999999' 
WAVCIS,ioos:station:WAVCIS:CSI09:1,2010-12-07T00:00:00Z,29.1015,-89.9782,0.0,6.983,340.0,,'11111222,11111222,99999999' 
WAVCIS,ioos:station:WAVCIS:CSI09:1,2010-12-07T01:00:00Z,29.1015,-89.9782,0.0,6.997,332.0,,'11111222,11111222,99999999' 
WAVCIS,ioos:station:WAVCIS:CSI09:1,2010-12-07T02:00:00Z,29.1015,-89.9782,0.0,7.78,345.0,,'11111222,11111222,99999999' 
WAVCIS,ioos:station:WAVCIS:CSI09:1,2010-12-07T03:00:00Z,29.1015,-89.9782,0.0,9.64,337.0,,'11111222,11111222,99999999' 
WAVCIS,ioos:station:WAVCIS:CSI09:1,2010-12-07T04:00:00Z,29.1015,-89.9782,0.0,9.83,341.0,,'11111222,11111222,99999999' 
WAVCIS,ioos:station:WAVCIS:CSI09:1,2010-12-07T05:00:00Z,29.1015,-89.9782,0.0,9.98,342.0,,'11111222,11111222,99999999' 
WAVCIS,ioos:station:WAVCIS:CSI09:1,2010-12-07T06:00:00Z,29.1015,-89.9782,0.0,8.71,352.0,,'11111222,11111222,99999999' 
WAVCIS,ioos:station:WAVCIS:CSI09:1,2010-12-07T07:00:00Z,29.1015,-89.9782,0.0,8.94,355.0,,'11111222,11111222,99999999' 
WAVCIS,ioos:station:WAVCIS:CSI09:1,2010-12-07T08:00:00Z,29.1015,-89.9782,0.0,8.92,7.0,,'11111222,11111222,99999999' 
WAVCIS,ioos:station:WAVCIS:CSI09:1,2010-12-07T09:00:00Z,29.1015,-89.9782,0.0,8.98,355.0,,'11111222,11111222,99999999' 
WAVCIS,ioos:station:WAVCIS:CSI09:1,2010-12-07T10:00:00Z,29.1015,-89.9782,0.0,9.2,5.0,,'11111222,11111222,99999999' 
WAVCIS,ioos:station:WAVCIS:CSI09:1,2010-12-07T11:00:00Z,29.1015,-89.9782,0.0,10.64,7.0,,'11111222,11111222,99999999' 
WAVCIS,ioos:station:WAVCIS:CSI09:1,2010-12-07T12:00:00Z,29.1015,-89.9782,0.0,10.57,19.0,,'11111222,11111222,99999999' 
WAVCIS,ioos:station:WAVCIS:CSI09:1,2010-12-07T13:00:00Z,29.1015,-89.9782,0.0,9.25,18.0,,'11111222,11111222,99999999' 
WAVCIS,ioos:station:WAVCIS:CSI09:1,2010-12-07T14:00:00Z,29.1015,-89.9782,0.0,7.61,23.0,,'11111222,11111222,99999999' 
WAVCIS,ioos:station:WAVCIS:CSI09:1,2010-12-07T15:00:00Z,29.1015,-89.9782,0.0,7.8,35.0,,'11111222,11111222,99999999' 
WAVCIS,ioos:station:WAVCIS:CSI09:1,2010-12-07T16:00:00Z,29.1015,-89.9782,0.0,7.08,33.0,,'11111222,11111222,99999999' 
WAVCIS,ioos:station:WAVCIS:CSI09:1,2010-12-07T17:00:00Z,29.1015,-89.9782,0.0,5.408,34.0,,'11111222,11111222,99999999' 
WAVCIS,ioos:station:WAVCIS:CSI09:1,2010-12-07T18:00:00Z,29.1015,-89.9782,0.0,4.792,40.0,,'11111222,11111222,99999999' 
WAVCIS,ioos:station:WAVCIS:CSI09:1,2010-12-07T19:00:00Z,29.1015,-89.9782,0.0,5.197,43.0,,'11111222,11111222,99999999' 
WAVCIS,ioos:station:WAVCIS:CSI09:1,2010-12-07T20:00:00Z,29.1015,-89.9782,0.0,4.77,47.0,,'11111222,11111222,99999999' 
WAVCIS,ioos:station:WAVCIS:CSI09:1,2010-12-07T21:00:00Z,29.1015,-89.9782,0.0,3.838,53.0,,'11111222,11111222,99999999' 
WAVCIS,ioos:station:WAVCIS:CSI09:1,2010-12-07T22:00:00Z,29.1015,-89.9782,0.0,2.872,39.0,,'11111222,11111222,99999999' 
WAVCIS,ioos:station:WAVCIS:CSI09:1,2010-12-07T23:00:00Z,29.1015,-89.9782,0.0,2.177,345.0,,'11111222,11111222,99999999' 
WAVCIS,ioos:station:WAVCIS:CSI09:1,2010-12-08T00:00:00Z,29.1015,-89.9782,0.0,2.179,46.0,,'11111222,11111222,99999999' 
WAVCIS,ioos:station:WAVCIS:CSI09:1,2010-12-08T01:00:00Z,29.1015,-89.9782,0.0,2.18,102.0,,'11111222,11111222,99999999' 
WAVCIS,ioos:station:WAVCIS:CSI09:1,2010-12-08T02:00:00Z,29.1015,-89.9782,0.0,1.293,61.0,,'11111222,11111222,99999999' 
WAVCIS,ioos:station:WAVCIS:CSI09:1,2010-12-08T03:00:00Z,29.1015,-89.9782,0.0,2.181,79.0,,'11111222,11111222,99999999' 
WAVCIS,ioos:station:WAVCIS:CSI09:1,2010-12-08T04:00:00Z,29.1015,-89.9782,0.0,2.083,55.0,,'11111222,11111222,99999999' 
WAVCIS,ioos:station:WAVCIS:CSI09:1,2010-12-08T05:00:00Z,29.1015,-89.9782,0.0,3.346,30.0,,'11111222,11111222,99999999' 
WAVCIS,ioos:station:WAVCIS:CSI09:1,2010-12-08T06:00:00Z,29.1015,-89.9782,0.0,4.112,14.0,,'11111222,11111222,99999999' 
WAVCIS,ioos:station:WAVCIS:CSI09:1,2010-12-08T07:00:00Z,29.1015,-89.9782,0.0,4.507,25.0,,'11111222,11111222,99999999' 
WAVCIS,ioos:station:WAVCIS:CSI09:1,2010-12-08T08:00:00Z,29.1015,-89.9782,0.0,4.971,68.0,,'11111222,11111222,99999999' 
WAVCIS,ioos:station:WAVCIS:CSI09:1,2010-12-08T09:00:00Z,29.1015,-89.9782,0.0,5.867,65.0,,'11111222,11111222,99999999' 
WAVCIS,ioos:station:WAVCIS:CSI09:1,2010-12-08T10:00:00Z,29.1015,-89.9782,0.0,8.91,70.0,,'11111222,11111222,99999999' 
WAVCIS,ioos:station:WAVCIS:CSI09:1,2010-12-08T11:00:00Z,29.1015,-89.9782,0.0,7.8,45.0,,'11111222,11111222,99999999' 
WAVCIS,ioos:station:WAVCIS:CSI09:1,2010-12-08T12:00:00Z,29.1015,-89.9782,0.0,12.8,342.0,,'11111222,11111222,99999999' 
WAVCIS,ioos:station:WAVCIS:CSI09:1,2010-12-08T13:00:00Z,29.1015,-89.9782,0.0,7.77,14.0,,'11111222,11111222,99999999' 
WAVCIS,ioos:station:WAVCIS:CSI09:1,2010-12-08T14:00:00Z,29.1015,-89.9782,0.0,7.65,28.0,,'11111222,11111222,99999999' 
WAVCIS,ioos:station:WAVCIS:CSI09:1,2010-12-08T15:00:00Z,29.1015,-89.9782,0.0,7.86,41.0,,'11111222,11111222,99999999' 
WAVCIS,ioos:station:WAVCIS:CSI09:1,2010-12-08T16:00:00Z,29.1015,-89.9782,0.0,8.42,40.0,,'11111222,11111222,99999999' 
WAVCIS,ioos:station:WAVCIS:CSI09:1,2010-12-08T17:00:00Z,29.1015,-89.9782,0.0,9.02,44.0,,'11111222,11111222,99999999' 
WAVCIS,ioos:station:WAVCIS:CSI09:1,2010-12-08T18:00:00Z,29.1015,-89.9782,0.0,8.4,33.0,,'11111222,11111222,99999999' 
WAVCIS,ioos:station:WAVCIS:CSI09:1,2010-12-08T19:00:00Z,29.1015,-89.9782,0.0,10.25,21.0,,'11111222,11111222,99999999' 
WAVCIS,ioos:station:WAVCIS:CSI09:1,2010-12-08T20:00:00Z,29.1015,-89.9782,0.0,10.04,20.0,,'11111222,11111222,99999999' 
WAVCIS,ioos:station:WAVCIS:CSI09:1,2010-12-08T21:00:00Z,29.1015,-89.9782,0.0,11.56,13.0,,'11111222,11111222,99999999' 
WAVCIS,ioos:station:WAVCIS:CSI09:1,2010-12-08T22:00:00Z,29.1015,-89.9782,0.0,11.06,11.0,,'11111222,11111222,99999999' 
WAVCIS,ioos:station:WAVCIS:CSI09:1,2010-12-08T23:00:00Z,29.1015,-89.9782,0.0,11.79,14.0,,'11111222,11111222,99999999' 
WAVCIS,ioos:station:WAVCIS:CSI09:1,2010-12-09T00:00:00Z,29.1015,-89.9782,0.0,11.26,13.0,,'11111222,11111222,99999999' 
WAVCIS,ioos:station:WAVCIS:CSI09:1,2010-12-09T01:00:00Z,29.1015,-89.9782,0.0,10.56,12.0,,'11111222,11111222,99999999' 
WAVCIS,ioos:station:WAVCIS:CSI09:1,2010-12-09T02:00:00Z,29.1015,-89.9782,0.0,11.45,14.0,,'11111222,11111222,99999999' 
WAVCIS,ioos:station:WAVCIS:CSI09:1,2010-12-09T03:00:00Z,29.1015,-89.9782,0.0,10.82,16.0,,'11111222,11111222,99999999' 
WAVCIS,ioos:station:WAVCIS:CSI09:1,2010-12-09T04:00:00Z,29.1015,-89.9782,0.0,10.79,19.0,,'11111222,11111222,99999999' 
WAVCIS,ioos:station:WAVCIS:CSI09:1,2010-12-09T05:00:00Z,29.1015,-89.9782,0.0,11.13,19.0,,'11111222,11111222,99999999' 
WAVCIS,ioos:station:WAVCIS:CSI09:1,2010-12-09T06:00:00Z,29.1015,-89.9782,0.0,11.11,21.0,,'11111222,11111222,99999999' 
WAVCIS,ioos:station:WAVCIS:CSI09:1,2010-12-09T07:00:00Z,29.1015,-89.9782,0.0,11.25,23.0,,'11111222,11111222,99999999' 